SCP
0 0 0 0 0 0 0 0 0 0 0 0 0 0 0 0 0 0 0 0 0 0 0 0 0 0 0 0 0 0 0 0 0 0 0 0 0 0
0 0 0 0 0 0 0 0 0 0 0 0 0 0 0 0 0 0 0 0 0 0 0 0 0 0 0 0 0 0 0 0 0 0 0 0 0 0
0 0 0 0 0 0 0 0 0 0 0 0 0 0 0 0 0 0 0 0 0 0 0 0 0 0 0 0 0 0 0 0 0 0 0 0 0 0
0 0 0 0 0 0 0 0 0 0 0 0 0 0 0 0 0 0 0 0 0 0 0 0 0 0 0 0 0 0 0 0 0 0 0 0 0 0
0 0 0 0 0 0 0 0 0 0 0 0 0 0 0 0 0 0 0 0 0 0 0 0 0 0 0 0 0 0 0 0 0 0 0 0 0 0
0 0 0 0 0 0 0 0 0 0 0 0 0 0 0 0 0 0 0 0 0 0 0 0 0 0 0 0 0 0 0 0 0 0 0 0 0 0
0 0 0 0 0 0 0 0 0 0 0 0 0 0 0 0 0 0 0 0 0 0 0 0 0 0 0 0 0 0 0 0 0 0 0 0 0 0
0 0 0 0 0 0 0 0 0 0 0 0 0 0 0 0 0 0 0 0 0 0 0 0 0 0 0 0 0 0 0 0 0 0 0 0 0 0
0 0 0 0 0 0 0 0 0 0 0 0 0 0 0 0 0 0 0 0 0 0 0 0 0 0 0 0 0 0 0 0 0 0 0 0 0 0
0 0 0 0 0 0 0 0 0 0 0 0 0 0 0 0 0 0 0 0 0 0 0 0 0 0 0 0 0 0 0 0 0 0 0 0 0 0
0 0 0 0 0 0 0 0 0 0 0 0 0 0 0 0 0 0 0 0 0 0 0 0 0 0 0 0 0 0 0 0 0 0 0 0 0 0
0 0 0 0 0 0 0 0 0 0 0 0 0 0 0 0 0 0 0 0 0 0 0 0 0 0 0 0 0 0 0 0 0 0 0 0 0 0
0 0 0 0 0 0 0 0 0 0 0 0 0 0 0 0 0 0 0 0 0 0 0 0 0 0 0 0 0 0 0 0 0 0 0 0 0 0
0 0 0 0 0 0 0 0 0 0 0 0 0 0 0 0 0 0 0 0 0 0 0 0 0 0 0 0 0 0 0 0 0 0 0 0 0 0
0 0 0 0 0 0 0 0 0 0 0 0 0 0 0 0 0 0 0 0 0 0 0 0 0 0 0 0 0 0 0 0 0 0 0 0 0 0
0 0 0 0 0 0 0 0 0 0 0 0 0 0 0 0 0 0 0 0 0 0 0 0 0 0 0 0 0 0 0 0 0 0 0 0 0 0
0 0 0 0 0 0 0 0 0 0 0 0 0 0 0 0 0 0 0 0 0 0 0 0 0 0 0 0 0 0 0 0 0 0 0 0 0 0
0 0 0 0 0 0 0 0 0 0 0 0 0 0 0 0 0 0 0 0 0 0 0 0 0 0 0 0 0 0 0 0 0 0 0 0 0 0
0 0 0 0 0 0 0 0 0 0 0 0 0 0 0 0 0 0 0 0 0 0 0 0 0 0 0 0 0 0 0 0 0 0 0 0 0 0
0 0 0 0 0 0 0 0 0 0 0 0 0 0 0 0 0 0 0 0 0 0 0 0 0 0 0 0 0 0 0 0 0 0 0 0 0 0
0 0 0 0 0 0 0 0 0 0 0 0 0 0 0 0 0 0 0 0 0 0 0 0 0 0 0 0 0 0 0 0 0 0 0 0 0 0
0 0 0 0 0 0 0 0 0 0 0 0 0 0 0 0 0 0 0 0 0 0 0 0 0 0 0 0 0 0 0 0 0 0 0 0 0 0
0 0 0 0 0 0 0 0 0 0 0 0 0 0 0 0 0 0 0 0 0 0 0 0 0 0 0 0 0 0 0 0 0 0 0 0 0 0
Wind_Speed_500mb
84 84 87 87 86 85 85 83 83 69 68 67 61 67 69 62 65 66 68 73 74 65 61 55 49 54 52 46 44 40 34 41 34 40 35 36 40 38
73 76 78 77 74 72 73 72 73 80 78 71 73 72 63 56 61 55 51 52 64 67 60 56 48 52 53 45 43 40 36 42 38 44 40 40 40 40
63 64 66 64 68 67 66 67 70 73 83 83 81 71 69 62 59 48 45 48 57 63 58 58 50 55 51 49 47 44 38 42 47 44 44 44 42 41
59 60 64 61 64 63 64 67 68 68 76 71 72 70 65 61 51 45 43 46 53 56 55 57 59 56 52 53 49 45 39 44 50 46 41 46 43 43
59 61 58 60 63 65 67 69 65 58 61 57 62 58 56 54 47 44 44 43 50 55 59 59 63 58 54 54 48 48 41 47 52 51 52 46 45 47
56 61 60 59 64 65 56 49 51 53 52 48 49 55 54 50 46 47 46 48 54 57 59 56 56 56 55 57 47 43 40 48 51 50 54 54 48 53
64 58 62 60 53 50 50 52 47 44 48 49 52 54 52 50 49 44 47 49 53 54 57 56 59 56 59 51 40 34 38 47 51 55 53 56 55 47
63 59 50 46 50 47 43 46 45 44 47 48 48 48 45 42 42 43 48 52 52 54 58 56 56 57 54 43 33 33 38 45 51 53 57 58 56 49
43 45 52 53 52 51 48 47 49 47 46 41 40 38 37 28 31 37 44 49 49 43 33 55 57 57 50 36 30 30 34 40 43 49 54 57 57 52
50 50 50 47 43 43 44 44 41 39 39 36 28 25 27 26 28 26 32 38 41 43 44 40 48 50 43 32 29 32 34 37 40 45 45 47 51 51
45 41 37 35 36 30 25 26 29 28 26 25 25 21 23 24 22 22 28 32 36 42 46 44 43 36 34 33 32 33 35 38 39 42 41 43 46 48
20 20 22 27 24 21 20 22 18 18 18 17 16 17 10 12 13 15 21 27 35 38 39 46 54 42 33 38 34 33 40 46 43 42 43 37 35 44
21 19 16 14 14 15 19 15 14 15 16 15 14 14 13 17 19 21 28 35 38 38 30 24 33 38 37 37 42 45 45 47 44 44 43 41 38 43
14 12 9 6 8 9 12 13 13 16 15 13 12 12 15 20 25 28 30 36 41 43 36 33 34 35 37 44 49 46 46 47 49 49 45 39 39 42
14 15 13 13 14 14 12 13 14 13 13 13 15 17 20 21 24 26 28 29 32 36 38 43 44 42 42 46 50 51 52 54 57 55 44 38 35 38
17 17 19 20 18 13 11 13 14 14 12 12 14 16 19 22 25 28 31 31 34 38 41 42 42 43 48 49 51 55 53 53 56 56 55 54 52 52
18 17 16 14 13 13 14 12 7 5 6 11 15 19 22 24 25 27 28 28 33 36 38 42 45 49 52 52 53 55 56 56 55 56 55 54 54 54
12 14 13 12 11 10 7 4 6 9 11 14 17 19 21 24 25 26 27 30 32 35 39 44 51 53 57 58 53 47 44 44 48 47 47 49 51 48
12 11 8 7 6 4 4 5 8 10 13 17 19 22 24 24 25 26 29 33 36 39 40 42 45 45 46 44 38 45 45 38 38 39 39 40 44 46
6 4 1 3 5 6 7 9 12 15 17 20 21 23 25 27 30 32 35 39 42 44 45 45 44 40 39 38 42 41 47 48 48 46 45 43 50 46
4 5 8 10 12 13 15 17 20 23 26 28 29 31 33 35 37 39 42 45 48 48 48 44 42 45 44 48 51 48 43 38 40 45 47 43 39 37
13 16 18 21 23 25 27 29 32 34 35 37 38 39 40 41 43 44 47 48 49 49 49 47 46 44 43 42 45 43 41 41 37 37 41 43 38 25
25 27 29 31 33 35 37 38 40 41 41 42 43 43 44 45 45 47 48 48 47 47 46 46 45 42 40 41 43 44 44 42 40 33 32 34 38 44
Wind_Direction_500mb
264 265 265 268 268 270 272 273 273 268 270 278 281 291 295 297 284 283 280 267 264 248 240 236 223 242 243 245 251 257 265 274 279 284 285 287 292 298
262 263 265 268 270 269 269 271 273 274 268 276 281 285 289 289 291 291 280 273 261 250 239 234 229 244 242 245 251 258 263 276 275 276 280 284 290 293
262 266 268 270 269 271 272 272 273 275 274 276 285 289 289 291 290 286 273 263 250 247 234 224 224 238 237 243 248 256 261 275 276 271 275 282 285 286
264 266 269 269 269 270 270 272 273 277 275 278 284 285 283 289 281 275 269 257 247 245 235 222 227 235 240 242 250 259 259 269 272 277 279 282 282 284
263 265 267 272 269 270 269 274 275 271 274 273 274 276 281 280 275 270 263 258 247 238 227 227 233 236 242 245 254 262 262 271 272 277 281 284 280 287
262 258 264 276 270 270 272 273 269 273 270 267 273 273 272 268 265 259 254 251 240 232 230 232 236 239 245 249 258 270 277 280 278 274 273 280 280 280
261 262 263 266 271 272 267 273 265 264 267 268 267 267 263 263 267 263 256 252 244 233 234 237 237 242 241 251 258 272 283 283 283 277 270 274 278 272
257 254 267 264 267 270 258 264 263 263 264 263 261 262 264 269 267 264 253 245 237 235 234 236 240 241 241 245 256 268 281 285 283 280 273 266 269 267
250 253 258 261 261 262 262 261 259 252 253 252 255 265 265 262 263 261 255 249 244 238 240 244 242 242 236 244 254 273 285 287 283 279 274 264 266 267
247 251 256 256 256 258 260 258 254 252 253 257 265 260 252 250 254 250 257 250 243 240 245 247 245 241 240 242 257 282 292 293 291 280 274 273 266 264
249 249 252 258 260 263 266 259 253 255 256 259 261 260 263 259 245 232 231 232 240 254 252 246 243 241 244 256 269 287 295 301 292 286 290 284 269 263
236 245 257 261 259 256 258 256 251 246 241 244 252 258 252 240 239 225 237 260 270 266 262 248 251 244 264 263 268 288 300 302 296 294 299 291 272 263
234 240 255 254 247 245 229 221 223 234 231 238 243 245 236 244 243 245 256 266 267 258 263 255 242 245 252 266 276 290 299 299 291 292 291 284 265 264
219 224 237 238 213 207 204 206 218 211 213 221 231 243 257 263 272 272 266 260 256 257 246 249 250 261 276 288 292 295 296 296 294 295 290 285 275 260
220 228 227 235 242 223 211 207 218 226 234 239 244 255 260 262 264 266 266 265 260 254 249 254 261 271 279 286 286 291 294 293 294 295 292 286 279 269
212 215 224 221 210 215 213 214 220 222 231 249 265 281 287 285 282 280 277 272 266 258 257 261 267 274 286 291 290 290 291 282 290 292 292 287 284 280
210 213 217 216 224 227 227 231 250 281 286 283 292 295 297 292 288 283 277 271 266 263 259 260 267 276 283 285 283 286 289 291 293 293 290 290 286 283
204 207 210 212 214 210 218 259 304 320 315 314 311 308 304 299 294 288 280 272 269 271 273 273 278 283 287 291 294 296 291 287 291 288 288 287 288 290
182 191 192 203 228 258 297 314 317 316 314 309 304 299 294 293 294 294 291 289 282 281 279 280 283 286 288 286 291 289 289 287 285 289 293 287 287 288
126 127 166 254 269 281 291 299 301 296 291 287 284 284 284 286 286 287 285 284 284 285 285 286 286 285 283 283 279 277 283 289 287 284 286 286 289 291
278 277 281 285 287 286 283 279 275 273 272 273 274 274 276 277 279 280 280 280 280 282 284 285 283 287 285 282 281 287 289 288 279 278 281 283 288 291
274 274 275 275 276 277 277 276 275 273 273 273 275 276 278 278 278 277 276 277 279 281 282 283 285 286 283 280 279 282 288 287 286 279 276 273 269 278
270 270 272 273 274 275 275 276 276 276 277 277 278 278 278 277 276 275 276 276 277 279 281 283 284 283 282 280 282 287 288 289 289 286 278 274 270 262
Wind_Speed_850mb
84 84 87 87 86 85 85 83 83 69 68 67 61 67 69 62 65 66 68 73 74 65 61 55 49 54 52 46 44 40 34 41 34 40 35 36 40 38
73 76 78 77 74 72 73 72 73 80 78 71 73 72 63 56 61 55 51 52 64 67 60 56 48 52 53 45 43 40 36 42 38 44 40 40 40 40
63 64 66 64 68 67 66 67 70 73 83 83 81 71 69 62 59 48 45 48 57 63 58 58 50 55 51 49 47 44 38 42 47 44 44 44 42 41
59 60 64 61 64 63 64 67 68 68 76 71 72 70 65 61 51 45 43 46 53 56 55 57 59 56 52 53 49 45 39 44 50 46 41 46 43 43
59 61 58 60 63 65 67 69 65 58 61 57 62 58 56 54 47 44 44 43 50 55 59 59 63 58 54 54 48 48 41 47 52 51 52 46 45 47
56 61 60 59 64 65 56 49 51 53 52 48 49 55 54 50 46 47 46 48 54 57 59 56 56 56 55 57 47 43 40 48 51 50 54 54 48 53
64 58 62 60 53 50 50 52 47 44 48 49 52 54 52 50 49 44 47 49 53 54 57 56 59 56 59 51 40 34 38 47 51 55 53 56 55 47
63 59 50 46 50 47 43 46 45 44 47 48 48 48 45 42 42 43 48 52 52 54 58 56 56 57 54 43 33 33 38 45 51 53 57 58 56 49
43 45 52 53 52 51 48 47 49 47 46 41 40 38 37 28 31 37 44 49 49 43 33 55 57 57 50 36 30 30 34 40 43 49 54 57 57 52
50 50 50 47 43 43 44 44 41 39 39 36 28 25 27 26 28 26 32 38 41 43 44 40 48 50 43 32 29 32 34 37 40 45 45 47 51 51
45 41 37 35 36 30 25 26 29 28 26 25 25 21 23 24 22 22 28 32 36 42 46 44 43 36 34 33 32 33 35 38 39 42 41 43 46 48
20 20 22 27 24 21 20 22 18 18 18 17 16 17 10 12 13 15 21 27 35 38 39 46 54 42 33 38 34 33 40 46 43 42 43 37 35 44
21 19 16 14 14 15 19 15 14 15 16 15 14 14 13 17 19 21 28 35 38 38 30 24 33 38 37 37 42 45 45 47 44 44 43 41 38 43
14 12 9 6 8 9 12 13 13 16 15 13 12 12 15 20 25 28 30 36 41 43 36 33 34 35 37 44 49 46 46 47 49 49 45 39 39 42
14 15 13 13 14 14 12 13 14 13 13 13 15 17 20 21 24 26 28 29 32 36 38 43 44 42 42 46 50 51 52 54 57 55 44 38 35 38
17 17 19 20 18 13 11 13 14 14 12 12 14 16 19 22 25 28 31 31 34 38 41 42 42 43 48 49 51 55 53 53 56 56 55 54 52 52
18 17 16 14 13 13 14 12 7 5 6 11 15 19 22 24 25 27 28 28 33 36 38 42 45 49 52 52 53 55 56 56 55 56 55 54 54 54
12 14 13 12 11 10 7 4 6 9 11 14 17 19 21 24 25 26 27 30 32 35 39 44 51 53 57 58 53 47 44 44 48 47 47 49 51 48
12 11 8 7 6 4 4 5 8 10 13 17 19 22 24 24 25 26 29 33 36 39 40 42 45 45 46 44 38 45 45 38 38 39 39 40 44 46
6 4 1 3 5 6 7 9 12 15 17 20 21 23 25 27 30 32 35 39 42 44 45 45 44 40 39 38 42 41 47 48 48 46 45 43 50 46
4 5 8 10 12 13 15 17 20 23 26 28 29 31 33 35 37 39 42 45 48 48 48 44 42 45 44 48 51 48 43 38 40 45 47 43 39 37
13 16 18 21 23 25 27 29 32 34 35 37 38 39 40 41 43 44 47 48 49 49 49 47 46 44 43 42 45 43 41 41 37 37 41 43 38 25
25 27 29 31 33 35 37 38 40 41 41 42 43 43 44 45 45 47 48 48 47 47 46 46 45 42 40 41 43 44 44 42 40 33 32 34 38 44
Wind_Direction_850mb
264 265 265 268 268 270 272 273 273 268 270 278 281 291 295 297 284 283 280 267 264 248 240 236 223 242 243 245 251 257 265 274 279 284 285 287 292 298
262 263 265 268 270 269 269 271 273 274 268 276 281 285 289 289 291 291 280 273 261 250 239 234 229 244 242 245 251 258 263 276 275 276 280 284 290 293
262 266 268 270 269 271 272 272 273 275 274 276 285 289 289 291 290 286 273 263 250 247 234 224 224 238 237 243 248 256 261 275 276 271 275 282 285 286
264 266 269 269 269 270 270 272 273 277 275 278 284 285 283 289 281 275 269 257 247 245 235 222 227 235 240 242 250 259 259 269 272 277 279 282 282 284
263 265 267 272 269 270 269 274 275 271 274 273 274 276 281 280 275 270 263 258 247 238 227 227 233 236 242 245 254 262 262 271 272 277 281 284 280 287
262 258 264 276 270 270 272 273 269 273 270 267 273 273 272 268 265 259 254 251 240 232 230 232 236 239 245 249 258 270 277 280 278 274 273 280 280 280
261 262 263 266 271 272 267 273 265 264 267 268 267 267 263 263 267 263 256 252 244 233 234 237 237 242 241 251 258 272 283 283 283 277 270 274 278 272
257 254 267 264 267 270 258 264 263 263 264 263 261 262 264 269 267 264 253 245 237 235 234 236 240 241 241 245 256 268 281 285 283 280 273 266 269 267
250 253 258 261 261 262 262 261 259 252 253 252 255 265 265 262 263 261 255 249 244 238 240 244 242 242 236 244 254 273 285 287 283 279 274 264 266 267
247 251 256 256 256 258 260 258 254 252 253 257 265 260 252 250 254 250 257 250 243 240 245 247 245 241 240 242 257 282 292 293 291 280 274 273 266 264
249 249 252 258 260 263 266 259 253 255 256 259 261 260 263 259 245 232 231 232 240 254 252 246 243 241 244 256 269 287 295 301 292 286 290 284 269 263
236 245 257 261 259 256 258 256 251 246 241 244 252 258 252 240 239 225 237 260 270 266 262 248 251 244 264 263 268 288 300 302 296 294 299 291 272 263
234 240 255 254 247 245 229 221 223 234 231 238 243 245 236 244 243 245 256 266 267 258 263 255 242 245 252 266 276 290 299 299 291 292 291 284 265 264
219 224 237 238 213 207 204 206 218 211 213 221 231 243 257 263 272 272 266 260 256 257 246 249 250 261 276 288 292 295 296 296 294 295 290 285 275 260
220 228 227 235 242 223 211 207 218 226 234 239 244 255 260 262 264 266 266 265 260 254 249 254 261 271 279 286 286 291 294 293 294 295 292 286 279 269
212 215 224 221 210 215 213 214 220 222 231 249 265 281 287 285 282 280 277 272 266 258 257 261 267 274 286 291 290 290 291 282 290 292 292 287 284 280
210 213 217 216 224 227 227 231 250 281 286 283 292 295 297 292 288 283 277 271 266 263 259 260 267 276 283 285 283 286 289 291 293 293 290 290 286 283
204 207 210 212 214 210 218 259 304 320 315 314 311 308 304 299 294 288 280 272 269 271 273 273 278 283 287 291 294 296 291 287 291 288 288 287 288 290
182 191 192 203 228 258 297 314 317 316 314 309 304 299 294 293 294 294 291 289 282 281 279 280 283 286 288 286 291 289 289 287 285 289 293 287 287 288
126 127 166 254 269 281 291 299 301 296 291 287 284 284 284 286 286 287 285 284 284 285 285 286 286 285 283 283 279 277 283 289 287 284 286 286 289 291
278 277 281 285 287 286 283 279 275 273 272 273 274 274 276 277 279 280 280 280 280 282 284 285 283 287 285 282 281 287 289 288 279 278 281 283 288 291
274 274 275 275 276 277 277 276 275 273 273 273 275 276 278 278 278 277 276 277 279 281 282 283 285 286 283 280 279 282 288 287 286 279 276 273 269 278
270 270 272 273 274 275 275 276 276 276 277 277 278 278 278 277 276 275 276 276 277 279 281 283 284 283 282 280 282 287 288 289 289 286 278 274 270 262